| time (UTC) | temp F | wind direction | speed MPH | gust MPH | rain 1hr in | rain 24hr in | rain mn in | humidity % | barometer mb |
| 20260503204555 | 81 | 272 | 3.0 | 9.0 | 0.00 | 0.00 | 0.00 | 41 | 1011.1 |
| 20260503203055 | 80 | 9 | 3.0 | 10.0 | 0.00 | 0.00 | 0.00 | 42 | 1011.3 |
| 20260503201558 | 80 | 266 | 2.0 | 8.0 | 0.00 | 0.00 | 0.00 | 42 | 1011.4 |
| 20260503200047 | 78 | 296 | 2.0 | 8.0 | 0.00 | 0.00 | 0.00 | 43 | 1011.6 |
| 20260503194554 | 79 | 305 | 3.0 | 9.0 | 0.00 | 0.00 | 0.00 | 43 | 1011.8 |
| 20260503193058 | 78 | 277 | 2.0 | 7.0 | 0.00 | 0.00 | 0.00 | 44 | 1012.1 |
| 20260503191550 | 77 | 265 | 1.0 | 7.0 | 0.00 | 0.00 | 0.00 | 45 | 1012.3 |
| 20260503190057 | 75 | 302 | 1.0 | 8.0 | 0.00 | 0.00 | 0.00 | 49 | 1012.4 |
| 20260503184602 | 74 | 302 | 2.0 | 7.0 | 0.00 | 0.00 | 0.00 | 50 | 1012.5 |
| 20260503183050 | 74 | 23 | 1.0 | 8.0 | 0.00 | 0.00 | 0.00 | 50 | 1012.7 |
| 20260503181552 | 73 | 289 | 2.0 | 5.0 | 0.00 | 0.00 | 0.00 | 54 | 1012.8 |
| 20260503180058 | 71 | 12 | 2.0 | 10.0 | 0.00 | 0.00 | 0.00 | 58 | 1012.9 |
| 20260503174606 | 70 | 11 | 2.0 | 6.0 | 0.00 | 0.00 | 0.00 | 58 | 1012.9 |
| 20260503173057 | 69 | 333 | 2.0 | 7.0 | 0.00 | 0.00 | 0.00 | 61 | 1013.2 |
| 20260503171553 | 68 | 92 | 2.0 | 6.0 | 0.00 | 0.00 | 0.00 | 61 | 1013.1 |
| 20260503100110 | 57 | 0 | 1.0 | 3.0 | 0.00 | 0.00 | 0.00 | 78 | 1013.4 |
| 20260503081553 | 60 | 90 | 1.0 | 3.0 | 0.00 | 0.00 | 0.00 | 67 | 1013.6 |
| 20260503071549 | 63 | 105 | 2.0 | 4.0 | 0.00 | 0.00 | 0.00 | 59 | 1013.5 |
| 20260503054549 | 65 | 0 | 0.0 | 1.0 | 0.00 | 0.00 | 0.00 | 53 | 1013.4 |
| 20260503053049 | 65 | 0 | 1.0 | 4.0 | 0.00 | 0.00 | 0.00 | 52 | 1013.5 |
| 20260503051549 | 65 | 78 | 0.0 | 2.0 | 0.00 | 0.00 | 0.00 | 52 | 1013.4 |
| 20260503050049 | 66 | 0 | 0.0 | 2.0 | 0.00 | 0.00 | 0.00 | 52 | 1013.4 |
| 20260503044553 | 67 | 350 | 0.0 | 3.0 | 0.00 | 0.00 | 0.00 | 52 | 1013.4 |
| 20260503043048 | 67 | 0 | 0.0 | 5.0 | 0.00 | 0.00 | 0.00 | 50 | 1013.3 |
| 20260503041551 | 68 | 351 | 1.0 | 4.0 | 0.00 | 0.00 | 0.00 | 49 | 1013.2 |
| 20260503040048 | 68 | 25 | 1.0 | 4.0 | 0.00 | 0.00 | 0.00 | 49 | 1013.1 |
| 20260503034603 | 69 | 0 | 1.0 | 4.0 | 0.00 | 0.00 | 0.00 | 49 | 1012.8 |
| 20260503033054 | 70 | 45 | 0.0 | 9.0 | 0.00 | 0.00 | 0.00 | 50 | 1012.7 |
| 20260503031553 | 70 | 31 | 2.0 | 7.0 | 0.00 | 0.00 | 0.00 | 49 | 1012.4 |
| 20260503030050 | 71 | 20 | 2.0 | 8.0 | 0.00 | 0.00 | 0.00 | 50 | 1012.3 |
| 20260503024551 | 72 | 49 | 1.0 | 6.0 | 0.00 | 0.00 | 0.00 | 51 | 1012.2 |
| 20260503023049 | 73 | 259 | 1.0 | 10.0 | 0.00 | 0.00 | 0.00 | 51 | 1012.1 |
| 20260503021550 | 74 | 287 | 2.0 | 9.0 | 0.00 | 0.00 | 0.00 | 51 | 1012.1 |
| 20260503020048 | 74 | 299 | 0.0 | 7.0 | 0.00 | 0.00 | 0.00 | 53 | 1012.0 |
| 20260503014600 | 74 | 311 | 3.0 | 8.0 | 0.00 | 0.00 | 0.00 | 52 | 1012.0 |
| 20260503013046 | 75 | 254 | 3.0 | 9.0 | 0.00 | 0.00 | 0.00 | 51 | 1012.0 |
| 20260503011547 | 75 | 270 | 3.0 | 8.0 | 0.00 | 0.00 | 0.00 | 51 | 1012.1 |
| 20260503010045 | 76 | 276 | 2.0 | 10.0 | 0.00 | 0.00 | 0.00 | 50 | 1012.0 |
| 20260503004543 | 76 | 295 | 3.0 | 11.0 | 0.00 | 0.00 | 0.00 | 48 | 1012.0 |
| 20260503003056 | 76 | 300 | 4.0 | 11.0 | 0.00 | 0.00 | 0.00 | 49 | 1012.1 |
| 20260503001604 | 77 | 277 | 3.0 | 9.0 | 0.00 | 0.00 | 0.00 | 47 | 1012.2 |
| 20260503000051 | 77 | 299 | 3.0 | 7.0 | 0.00 | 0.00 | 0.00 | 47 | 1012.3 |
| 20260502234551 | 77 | 97 | 3.0 | 8.0 | 0.00 | 0.00 | 0.00 | 47 | 1012.4 |
| 20260502233050 | 76 | 47 | 4.0 | 11.0 | 0.00 | 0.00 | 0.00 | 47 | 1012.6 |
| 20260502231552 | 77 | 270 | 5.0 | 13.0 | 0.00 | 0.00 | 0.00 | 46 | 1012.8 |
| 20260502230053 | 78 | 291 | 3.0 | 8.0 | 0.00 | 0.00 | 0.00 | 46 | 1013.0 |
| 20260502224549 | 76 | 292 | 2.0 | 13.0 | 0.00 | 0.00 | 0.00 | 49 | 1013.1 |
| 20260502223048 | 76 | 277 | 2.0 | 12.0 | 0.00 | 0.00 | 0.00 | 51 | 1013.4 |
| 20260502221551 | 75 | 287 | 2.0 | 7.0 | 0.00 | 0.00 | 0.00 | 52 | 1013.5 |
| 20260502220051 | 75 | 38 | 3.0 | 11.0 | 0.00 | 0.00 | 0.00 | 54 | 1013.6 |
| 20260502214558 | 74 | 14 | 2.0 | 9.0 | 0.00 | 0.00 | 0.00 | 55 | 1013.7 |
| 20260502213050 | 74 | 258 | 4.0 | 10.0 | 0.00 | 0.00 | 0.00 | 54 | 1013.7 |
| 20260502211546 | 74 | 0 | 2.0 | 10.0 | 0.00 | 0.00 | 0.00 | 55 | 1013.9 |
| 20260502210107 | 73 | 273 | 1.0 | 9.0 | 0.00 | 0.00 | 0.00 | 56 | 1014.1 |